[[{"header":{"parameterUnit":"m.s-1","parameterCategory":2,"la1":30.2991,"la2":30.254,"lo1":-89.0895,"lo2":-89.0444,"dy":0.0017,"dx":0.0017,"nx":28,"ny":28,"refTime":"2024-03-08T03:00:00:Z","depth":"0","parameterNumber":2,"parameterNumberName":"U-component_of_CURRENTS"},"data":[0,0,0,0,0,0,0,0,0,0,0,0,0,0,0,0,0,0,0,0,0,0,0,0,0,0,0,0,0,0,0,0,0,0,0,0,0,0,0,0,0,0,0,0,0,0,0,0,0,0,0,0,0,0,0,0,0,0,0.2776,0.2777,0,0.28,0.28,0.28,0.2788,0.2788,0.2787,0.2787,0.2784,0.2784,0.2784,0,0,0,0,0,0,0,0,0,0,0,0,0,0.2721,0.2721,0.2776,0.2777,0.2777,0.28,0.28,0.28,0.2788,0.2788,0.2787,0.2787,0.2784,0.2784,0.2784,0,0,0,0,0,0,0,0,0,0,0,0,0,0.2741,0.2722,0.2776,0.2777,0.2777,0.28,0.28,0.28,0.2788,0.2788,0.2787,0.2787,0.2784,0.2784,0.2784,0.2795,0,0,0.2785,0.2785,0,0,0,0,0,0,0,0,0.274,0.2743,0.2776,0.2777,0.2777,0.2793,0.2779,0.2798,0.2788,0.278,0.2787,0.2786,0.2787,0.2787,0.2788,0.2795,0.2795,0.2785,0.2785,0.2785,0.2786,0,0,0,0,0,0,0,0.2739,0.2742,0.2782,0.2777,0.2778,0.2776,0.2778,0.2782,0.2783,0.2781,0.2781,0.2789,0.2787,0.2788,0.2788,0.2795,0.2785,0.2785,0.2786,0.2786,0.2849,0.2851,0,0,0,0,0,0,0.2743,0.2741,0.2781,0.2783,0.2761,0.2778,0.278,0.2786,0.2783,0.2784,0.279,0.2789,0.2787,0.2788,0.2788,0.2834,0.2785,0.2786,0.2786,0.2848,0.285,0.2851,0,0,0,0,0,0,0.2742,0.2747,0.278,0.2765,0.277,0.2779,0.2786,0.2787,0.2791,0.2791,0.279,0.2794,0.2787,0.2787,0.2805,0.2833,0.2786,0.2786,0.2846,0.2848,0.285,0.2906,0,0,0,0,0,0,0.274,0.2746,0.2751,0.2765,0.2771,0.28,0.2787,0.2788,0.2798,0.2797,0.2795,0.2794,0.2787,0.2805,0.2805,0.2832,0.2786,0.2844,0.2847,0.285,0.2902,0.291,0.2916,0,0,0,0,0,0.2738,0.2742,0.2751,0.2757,0.2778,0.2801,0.2804,0.2806,0.2799,0.2807,0.2809,0.2794,0.2823,0.2806,0.2806,0.2834,0.2843,0.2846,0.285,0.2899,0.2908,0.2916,0,0,0,0,0,0,0.271,0.2742,0.2752,0.2764,0.2787,0.2801,0.2808,0.2811,0.2819,0.2818,0.281,0.281,0.2838,0.2829,0.2811,0.2862,0.2832,0.2836,0.2869,0.2878,0.2885,0.2896,0.2787,0,0,0,0,0,0.2712,0.2729,0.2758,0.2768,0.2782,0.2797,0.2806,0.2814,0.2824,0.2826,0.2827,0.2834,0.2853,0.2859,0.2868,0.2893,0.2909,0.2913,0.292,0.2926,0.2936,0.299,0.3003,0.2862,0.2862,0.2862,0,0,0.2703,0.2725,0.2733,0.2765,0.2781,0.2807,0.28,0.2821,0.2844,0.2826,0.285,0.2858,0.2865,0.2897,0.2909,0.2892,0.2976,0.293,0.2935,0.2942,0.2995,0.3008,0.3021,0.2865,0.2864,0.2864,0,0,0.2699,0.2717,0.2733,0.2762,0.2798,0.2813,0.2822,0.2847,0.2859,0.2887,0.2888,0.2914,0.2927,0.2949,0.2959,0.3011,0.3012,0.3013,0.3056,0.3108,0.3121,0.3131,0.3178,0.3192,0.3016,0.3016,0.3016,0,0.2689,0.2714,0.274,0.277,0.2792,0.2818,0.2841,0.2867,0.2893,0.2915,0.29,0.2954,0.2955,0.3012,0.3033,0.3028,0.3056,0.3021,0.3118,0.3129,0.3139,0.3184,0.3199,0.3019,0.3018,0.3018,0.3018,0,0.2703,0.2728,0.274,0.279,0.2816,0.2841,0.2885,0.2917,0.2932,0.2958,0.3012,0.3025,0.3059,0.3068,0.3066,0.3144,0.3142,0.3122,0.3096,0.3157,0.32,0.3215,0.3023,0.3022,0.3021,0.302,0,0,0.2661,0.2735,0.2739,0.2772,0.2829,0.2854,0.2905,0.296,0.3007,0.3036,0.309,0.313,0.3144,0.3158,0.3167,0.3212,0.3307,0.3202,0.3204,0.3248,0.3431,0.3392,0.3404,0.3308,0.3311,0.3313,0.3435,0,0.2661,0.2715,0.275,0.2802,0.2833,0.2886,0.2935,0.2995,0.3041,0.3105,0.3143,0.3197,0.3178,0.3206,0.3251,0.3299,0.3348,0.3276,0.3366,0.3369,0.3326,0.3421,0.3325,0.3423,0.3449,0.3452,0.3454,0,0.2656,0.2698,0.274,0.2825,0.2843,0.288,0.2971,0.3025,0.3128,0.3165,0.3229,0.3263,0.3347,0.3312,0.343,0.3388,0.3419,0.3444,0.3449,0.3404,0.3358,0.3365,0.3449,0.3379,0.3476,0.3474,0.3473,0,0.261,0.2689,0.272,0.2748,0.2845,0.2881,0.294,0.304,0.3089,0.3216,0.3262,0.3358,0.3414,0.3474,0.3524,0.3495,0.3642,0.3604,0.3597,0.3594,0.3525,0.3511,0.3549,0.3687,0.3687,0.3686,0.3686,0,0.2589,0.2618,0.2707,0.2729,0.2778,0.2867,0.293,0.3012,0.3121,0.3186,0.3293,0.3359,0.346,0.3543,0.3572,0.3641,0.3684,0.3634,0.3635,0.3541,0.3528,0.3471,0.3437,0.3691,0.369,0.3689,0.3688,0,0.2521,0.258,0.2623,0.2724,0.2752,0.2791,0.2896,0.2954,0.3081,0.3171,0.3214,0.3383,0.3517,0.3598,0.3715,0.3705,0.3675,0.3769,0.3651,0.3636,0.3545,0.3517,0.3412,0.3302,0.38,0.38,0.38,0,0.2487,0.2505,0.2588,0.2607,0.2647,0.2716,0.2762,0.29,0.2959,0.3171,0.3207,0.3394,0.3497,0.3674,0.3724,0.3802,0.3675,0.3726,0.3646,0.3555,0.3527,0.3355,0.3256,0.3585,0.3584,0.3582,0.3581,0,0.242,0.2446,0.2479,0.2519,0.2561,0.2604,0.269,0.2725,0.2899,0.2999,0.3153,0.3272,0.3492,0.3566,0.3688,0.3708,0.3557,0.3696,0.3641,0.3405,0.3183,0.3072,0.3487,0.3568,0.3569,0.357,0.3571,0.3571,0.2351,0.235,0.2395,0.242,0.246,0.2489,0.2497,0.2601,0.2687,0.2828,0.3009,0.3156,0.3371,0.3557,0.3548,0.3523,0.3476,0.3452,0.3444,0.329,0.3121,0.3505,0.3553,0.3555,0.3556,0.3556,0.3557,0,0.2261,0.2276,0.23,0.2319,0.2315,0.2378,0.2436,0.2435,0.2491,0.2686,0.281,0.3036,0.3149,0.3288,0.3399,0.3311,0.3112,0.3224,0.2978,0.2906,0.3309,0.3237,0.317,0.317,0.317,0.317,0.317,0.3171,0.2215,0.22,0.2215,0.217,0.2182,0.2149,0.2159,0.2184,0.2292,0.2431,0.2578,0.275,0.3064,0.3258,0.3237,0.315,0.2897,0.2774,0.273,0.3061,0.308,0.3099,0.3023,0.2913,0.2913,0.2193,0.2188,0.2184]},{"header":{"parameterUnit":"m.s-1","parameterCategory":2,"la1":30.2991,"la2":30.254,"lo1":-89.0895,"lo2":-89.0444,"dy":0.0017,"dx":0.0017,"nx":28,"ny":28,"refTime":"2024-03-08T03:00:00:Z","depth":"0","parameterNumber":3,"parameterNumberName":"V-component_of_CURRENTS"},"data":[0,0,0,0,0,0,0,0,0,0,0,0,0,0,0,0,0,0,0,0,0,0,0,0,0,0,0,0,0,0,0,0,0,0,0,0,0,0,0,0,0,0,0,0,0,0,0,0,0,0,0,0,0,0,0,0,0,0,-0.002,-0.002,0,-0.0089,-0.009,-0.0091,-0.014,-0.014,-0.014,-0.014,-0.0253,-0.0256,-0.0259,0,0,0,0,0,0,0,0,0,0,0,0,0,0.0016,0.0016,-0.002,-0.002,-0.0021,-0.0089,-0.009,-0.0092,-0.014,-0.014,-0.014,-0.014,-0.0252,-0.0256,-0.0259,0,0,0,0,0,0,0,0,0,0,0,0,0,-0.0022,0.0016,-0.0019,-0.0052,-0.0056,-0.0089,-0.009,-0.0092,-0.014,-0.014,-0.014,-0.0141,-0.0251,-0.0255,-0.026,-0.0278,0,0,-0.0272,-0.0274,0,0,0,0,0,0,0,0,-0.002,-0.0024,-0.0047,-0.005,-0.0054,-0.0105,-0.0119,-0.0156,-0.0139,-0.0109,-0.014,-0.0141,-0.0206,-0.0214,-0.0228,-0.0284,-0.0289,-0.0273,-0.0275,-0.0277,-0.0278,0,0,0,0,0,0,0,-0.0017,-0.0021,-0.0049,-0.0047,-0.0052,-0.0083,-0.0088,-0.0127,-0.0157,-0.0112,-0.0115,-0.0121,-0.0209,-0.0224,-0.0231,-0.029,-0.0273,-0.0276,-0.0279,-0.028,-0.0372,-0.0372,0,0,0,0,0,0,-0.0002,-0.0018,-0.0047,-0.0051,-0.0036,-0.0083,-0.0089,-0.0089,-0.0156,-0.0165,-0.012,-0.0123,-0.0217,-0.0226,-0.0236,-0.0259,-0.0277,-0.0281,-0.0283,-0.0372,-0.0372,-0.0372,0,0,0,0,0,0,-0.0001,-0.0004,-0.0044,-0.0035,-0.0042,-0.0082,-0.0083,-0.0091,-0.0104,-0.0161,-0.0172,-0.0125,-0.0217,-0.023,-0.0264,-0.0264,-0.0283,-0.0287,-0.0372,-0.0372,-0.0372,-0.0308,0,0,0,0,0,0,0.0,-0.0003,0.0002,-0.0034,-0.0042,-0.0056,-0.0083,-0.0092,-0.0106,-0.011,-0.0169,-0.018,-0.0219,-0.0258,-0.0268,-0.027,-0.029,-0.0372,-0.0372,-0.0372,-0.031,-0.0306,-0.0302,0,0,0,0,0,0.0002,0.0014,0.0002,-0.0001,-0.0034,-0.0055,-0.0062,-0.0093,-0.0105,-0.0107,-0.0147,-0.0178,-0.0265,-0.0261,-0.0274,-0.0276,-0.0372,-0.0372,-0.0372,-0.0312,-0.0307,-0.0302,0,0,0,0,0,0,0.0035,0.0009,-0.0004,-0.0,-0.0023,-0.0062,-0.0065,-0.0087,-0.0119,-0.0122,-0.0177,-0.0191,-0.0221,-0.0256,-0.0251,-0.0302,-0.0324,-0.0326,-0.0274,-0.0269,-0.0265,-0.0239,-0.0293,0,0,0,0,0,0.0044,0.0045,0.0014,0.0018,0.001,-0.0026,-0.0038,-0.0058,-0.009,-0.0105,-0.0146,-0.0191,-0.0231,-0.0254,-0.0293,-0.0321,-0.0343,-0.0332,-0.0327,-0.0323,-0.0311,-0.0355,-0.0353,-0.0371,-0.0371,-0.0371,0,0,0.0058,0.0045,0.0045,0.0025,0.0005,0.0003,-0.0034,-0.0044,-0.0048,-0.0112,-0.013,-0.0176,-0.0234,-0.0265,-0.0282,-0.0294,-0.0326,-0.0323,-0.0319,-0.0309,-0.0354,-0.0352,-0.0351,-0.0371,-0.0371,-0.0371,0,0,0.0092,0.0076,0.0089,0.0074,0.0052,0.0029,0.003,-0.0005,-0.0023,-0.0046,-0.0094,-0.0138,-0.0194,-0.0239,-0.0268,-0.0265,-0.0301,-0.0278,-0.024,-0.0282,-0.0281,-0.028,-0.0285,-0.0285,-0.0279,-0.0278,-0.0278,0,0.0111,0.0122,0.0089,0.0097,0.0094,0.0046,0.0061,0.0035,-0.0007,-0.0016,-0.004,-0.0126,-0.0182,-0.0223,-0.0226,-0.0256,-0.027,-0.0253,-0.0276,-0.0276,-0.0276,-0.0282,-0.0283,-0.0275,-0.0276,-0.0276,-0.0276,0,0.0152,0.0159,0.0167,0.0162,0.0152,0.0156,0.0121,0.0109,0.0082,0.0051,0.0011,-0.0066,-0.0114,-0.0147,-0.0189,-0.0219,-0.0223,-0.0263,-0.0284,-0.027,-0.0277,-0.0279,-0.0271,-0.0272,-0.0273,-0.0274,0,0,0.0202,0.0198,0.0201,0.0214,0.0189,0.019,0.0185,0.0169,0.0178,0.0114,0.0116,0.0019,-0.0021,-0.0057,-0.0122,-0.017,-0.019,-0.021,-0.0214,-0.0205,-0.0251,-0.0251,-0.0253,-0.0233,-0.0234,-0.0234,-0.0247,0,0.0247,0.0281,0.0264,0.0297,0.0312,0.0275,0.0284,0.0261,0.0228,0.0216,0.0126,0.0096,0.0012,-0.0008,-0.007,-0.0154,-0.0196,-0.0181,-0.0274,-0.0276,-0.0271,-0.0257,-0.0226,-0.0235,-0.025,-0.025,-0.025,0,0.0297,0.0313,0.0357,0.0377,0.0382,0.0397,0.0407,0.0404,0.0365,0.0339,0.0282,0.022,0.0144,0.0069,-0.0064,-0.0047,-0.0138,-0.0213,-0.0216,-0.0239,-0.0281,-0.0258,-0.0239,-0.0424,-0.0254,-0.0254,-0.0254,0,0.0357,0.0381,0.0423,0.0426,0.0439,0.0462,0.0467,0.0448,0.0467,0.0417,0.0427,0.0319,0.0291,0.0149,-0.0002,-0.0031,-0.0135,-0.02,-0.0283,-0.0283,-0.0286,-0.0286,-0.045,-0.0295,-0.0295,-0.0295,-0.0295,0,0.0413,0.0447,0.0459,0.0484,0.0549,0.053,0.0593,0.0575,0.058,0.0627,0.0498,0.0518,0.0309,0.0225,0.0055,-0.0097,-0.0092,-0.0261,-0.029,-0.0261,-0.0258,-0.0444,-0.0545,-0.0296,-0.0295,-0.0295,-0.0295,0,0.0475,0.0479,0.0532,0.0562,0.0583,0.0628,0.0687,0.0728,0.0713,0.0773,0.0768,0.0685,0.0573,0.0369,0.0165,0.0006,-0.0259,-0.0226,-0.0155,-0.0177,-0.0444,-0.0541,-0.0709,-0.0784,-0.032,-0.032,-0.032,0,0.0508,0.0543,0.0599,0.0642,0.0663,0.0727,0.0783,0.0794,0.0848,0.089,0.0936,0.0856,0.0824,0.053,0.0225,-0.005,-0.0242,-0.0205,-0.0282,-0.0443,-0.0574,-0.0648,-0.0705,-0.025,-0.025,-0.0249,-0.0249,0,0.0574,0.0595,0.0638,0.0729,0.0796,0.0876,0.0958,0.1029,0.1069,0.1133,0.1213,0.1197,0.0924,0.0657,0.0271,0.0071,-0.0323,-0.0207,-0.0407,-0.0553,-0.0612,-0.0701,-0.0236,-0.0246,-0.0246,-0.0246,-0.0246,-0.0247,0.0626,0.0671,0.0733,0.0821,0.0902,0.1019,0.1109,0.121,0.1338,0.1454,0.143,0.1446,0.1054,0.0525,0.0221,-0.0302,-0.0326,-0.0471,-0.0575,-0.0635,-0.0718,-0.0225,-0.0256,-0.0256,-0.0257,-0.0257,-0.0257,0,0.0687,0.0738,0.082,0.0928,0.1028,0.1063,0.1224,0.1333,0.1509,0.1609,0.1679,0.1524,0.102,0.0508,-0.0205,-0.0599,-0.0744,-0.0811,-0.0929,-0.0972,-0.0558,-0.0567,-0.0628,-0.0628,-0.0627,-0.0627,-0.0627,-0.0627,0.0723,0.0809,0.085,0.1019,0.1101,0.1259,0.1363,0.1535,0.1654,0.18,0.1831,0.1809,0.1447,0.0136,-0.0773,-0.0984,-0.1254,-0.1305,-0.1463,-0.1209,-0.1186,-0.1164,-0.1199,-0.1391,-0.1392,-0.1818,-0.1822,-0.1826]}],[{"header":{"parameterUnit":"m.s-1","parameterCategory":2,"la1":30.2991,"la2":30.254,"lo1":-89.0895,"lo2":-89.0444,"dy":0.0017,"dx":0.0017,"nx":28,"ny":28,"refTime":"2024-03-08T03:00:00:Z","depth":"2","parameterNumber":2,"parameterNumberName":"U-component_of_CURRENTS"},"data":[0,0,0,0,0,0,0,0,0,0,0,0,0,0,0,0,0,0,0,0,0,0,0,0,0,0,0,0,0,0,0,0,0,0,0,0,0,0,0,0,0,0,0,0,0,0,0,0,0,0,0,0,0,0,0,0,0,0,0.2496,0.2497,0,0.253,0.253,0.253,0.2536,0.2536,0.2536,0.2536,0.2547,0.2548,0.2548,0,0,0,0,0,0,0,0,0,0,0,0,0,0.2434,0.2435,0.2496,0.2497,0.2497,0.2529,0.253,0.253,0.2536,0.2536,0.2536,0.2536,0.2547,0.2548,0.2548,0,0,0,0,0,0,0,0,0,0,0,0,0,0.2461,0.2435,0.2496,0.2506,0.2508,0.2529,0.253,0.253,0.2536,0.2536,0.2536,0.2536,0.2547,0.2548,0.2548,0.2552,0,0,0.255,0.255,0,0,0,0,0,0,0,0,0.2459,0.2463,0.2504,0.2506,0.2507,0.2531,0.2512,0.2537,0.2536,0.2523,0.2536,0.2536,0.2542,0.2543,0.2546,0.2552,0.2553,0.255,0.255,0.255,0.255,0,0,0,0,0,0,0,0.2457,0.2461,0.2507,0.2505,0.2507,0.2508,0.2512,0.2517,0.253,0.2524,0.2525,0.2533,0.2542,0.2545,0.2546,0.2553,0.255,0.255,0.255,0.2551,0.2619,0.262,0,0,0,0,0,0,0.2459,0.246,0.2506,0.2508,0.2486,0.251,0.2513,0.2521,0.253,0.2532,0.2533,0.2533,0.2544,0.2545,0.2546,0.2594,0.255,0.2551,0.2551,0.2617,0.2619,0.2621,0,0,0,0,0,0,0.2457,0.2463,0.2504,0.2486,0.2492,0.2511,0.252,0.2522,0.2537,0.2538,0.2539,0.2547,0.2544,0.2546,0.2569,0.2592,0.2551,0.2551,0.2615,0.2618,0.262,0.2661,0,0,0,0,0,0,0.2456,0.2462,0.2471,0.2487,0.2493,0.2526,0.252,0.2523,0.2542,0.2543,0.255,0.255,0.2544,0.2568,0.2569,0.2592,0.2552,0.2613,0.2616,0.2619,0.2658,0.2664,0.267,0,0,0,0,0,0.2453,0.2464,0.2472,0.2478,0.2505,0.2527,0.2531,0.2542,0.2543,0.2554,0.2564,0.2551,0.2587,0.257,0.2571,0.2594,0.2612,0.2616,0.2619,0.2655,0.2663,0.267,0,0,0,0,0,0,0.2437,0.2466,0.2475,0.2493,0.2514,0.2529,0.2543,0.255,0.2566,0.257,0.2566,0.2568,0.26,0.2594,0.2575,0.2625,0.2599,0.2603,0.2626,0.2634,0.264,0.2658,0.2552,0,0,0,0,0,0.244,0.2458,0.2484,0.2499,0.2513,0.2531,0.2543,0.2553,0.2568,0.2576,0.2583,0.2595,0.2613,0.262,0.2633,0.2655,0.267,0.2674,0.268,0.2685,0.2703,0.275,0.2762,0.2632,0.2632,0.2632,0,0,0.2438,0.2457,0.2467,0.2498,0.2515,0.2539,0.2538,0.2563,0.2586,0.2574,0.2608,0.2618,0.2626,0.2656,0.2669,0.2653,0.2729,0.2689,0.2693,0.2709,0.2755,0.2767,0.2779,0.2634,0.2634,0.2633,0,0,0.2442,0.2463,0.248,0.2503,0.2538,0.2552,0.2563,0.2591,0.2607,0.2638,0.2643,0.2673,0.2688,0.2708,0.2716,0.2766,0.2763,0.2766,0.2809,0.2854,0.2865,0.2875,0.2906,0.2918,0.2766,0.2766,0.2766,0,0.2438,0.2464,0.2488,0.2513,0.2535,0.256,0.2584,0.2608,0.264,0.2665,0.2655,0.2714,0.2717,0.2767,0.2787,0.278,0.2801,0.2775,0.2862,0.2872,0.2882,0.2911,0.2924,0.2768,0.2768,0.2768,0.2768,0,0.2455,0.2481,0.2495,0.2536,0.2563,0.2588,0.2628,0.266,0.2682,0.2709,0.2767,0.2779,0.2815,0.2822,0.2819,0.2891,0.2882,0.2866,0.2841,0.2898,0.2924,0.2937,0.2772,0.2771,0.277,0.277,0,0,0.2429,0.2493,0.2499,0.2525,0.2578,0.26,0.2652,0.2707,0.2748,0.2785,0.2841,0.288,0.2897,0.291,0.2913,0.2955,0.3035,0.2944,0.2945,0.2971,0.3134,0.3108,0.3119,0.3034,0.3036,0.3039,0.3123,0,0.2434,0.248,0.2512,0.2559,0.2589,0.2637,0.2685,0.2742,0.2785,0.2847,0.2889,0.2941,0.2926,0.2951,0.2992,0.303,0.3072,0.3013,0.3079,0.3081,0.3049,0.3135,0.2892,0.2946,0.3136,0.3138,0.3139,0,0.2435,0.247,0.2512,0.2584,0.2603,0.2635,0.2718,0.2769,0.2865,0.2901,0.2964,0.2999,0.3078,0.305,0.3147,0.3112,0.3135,0.3156,0.3159,0.3133,0.308,0.2922,0.2962,0.3161,0.3159,0.3158,0.3156,0,0.2401,0.2468,0.25,0.2524,0.2608,0.2642,0.2696,0.2788,0.2841,0.2949,0.2998,0.3079,0.3137,0.3184,0.3232,0.32,0.3336,0.3287,0.3284,0.3281,0.3088,0.3065,0.3364,0.3364,0.3364,0.3364,0.3363,0,0.2387,0.2414,0.2489,0.2508,0.2559,0.2634,0.2697,0.2766,0.287,0.2939,0.3027,0.3093,0.318,0.3259,0.3275,0.3333,0.337,0.3322,0.3317,0.3095,0.3072,0.3264,0.3252,0.3367,0.3366,0.3365,0.3365,0,0.2336,0.2386,0.2425,0.2512,0.2541,0.2581,0.2687,0.2734,0.2851,0.2943,0.2988,0.3136,0.3249,0.332,0.3415,0.3396,0.3443,0.3448,0.3184,0.3147,0.3341,0.333,0.3454,0.3454,0.3454,0.3454,0.3454,0,0.2312,0.2329,0.2407,0.2428,0.2462,0.2533,0.2579,0.2704,0.2756,0.2955,0.2994,0.3166,0.3245,0.3391,0.3414,0.3459,0.3484,0.3243,0.3142,0.3377,0.3359,0.3347,0.3335,0.2892,0.2888,0.2884,0.2881,0,0.2262,0.2287,0.2316,0.2365,0.2405,0.245,0.2531,0.2567,0.2721,0.2818,0.2959,0.3056,0.3229,0.3195,0.3284,0.3263,0.3216,0.3171,0.3497,0.2918,0.2858,0.2836,0.2841,0.2848,0.2851,0.2854,0.2855,0.2857,0.2211,0.2214,0.2255,0.2287,0.2328,0.2353,0.236,0.2447,0.253,0.2644,0.2817,0.2888,0.2976,0.3005,0.2941,0.2906,0.312,0.2963,0.297,0.2982,0.2913,0.2857,0.2834,0.2837,0.2839,0.2842,0.2844,0,0.2139,0.2154,0.218,0.2203,0.2198,0.2264,0.231,0.2295,0.2336,0.2485,0.2588,0.2466,0.2487,0.256,0.248,0.2512,0.243,0.2389,0.2251,0.229,0.2323,0.2213,0.1952,0.1948,0.1945,0.1942,0,0,0.2101,0.2088,0.2099,0.2063,0.2084,0.2053,0.2055,0.2052,0.212,0.2137,0.2174,0.239,0.2522,0.2201,0.2187,0.2054,0.2138,0.1972,0.2704,0.2584,0.2611,0.2693,0.2576,0,0,0,0,0]},{"header":{"parameterUnit":"m.s-1","parameterCategory":2,"la1":30.2991,"la2":30.254,"lo1":-89.0895,"lo2":-89.0444,"dy":0.0017,"dx":0.0017,"nx":28,"ny":28,"refTime":"2024-03-08T03:00:00:Z","depth":"2","parameterNumber":3,"parameterNumberName":"V-component_of_CURRENTS"},"data":[0,0,0,0,0,0,0,0,0,0,0,0,0,0,0,0,0,0,0,0,0,0,0,0,0,0,0,0,0,0,0,0,0,0,0,0,0,0,0,0,0,0,0,0,0,0,0,0,0,0,0,0,0,0,0,0,0,0,-0.0016,-0.0016,0,-0.0081,-0.0082,-0.0082,-0.0128,-0.0128,-0.0129,-0.0129,-0.0221,-0.0223,-0.0225,0,0,0,0,0,0,0,0,0,0,0,0,0,0.0018,0.0018,-0.0016,-0.0016,-0.0017,-0.0081,-0.0082,-0.0083,-0.0128,-0.0129,-0.0129,-0.0129,-0.022,-0.0223,-0.0225,0,0,0,0,0,0,0,0,0,0,0,0,0,-0.0017,0.0018,-0.0016,-0.0047,-0.005,-0.008,-0.0082,-0.0083,-0.0128,-0.0129,-0.0129,-0.0129,-0.0219,-0.0222,-0.0226,-0.0238,0,0,-0.0236,-0.0237,0,0,0,0,0,0,0,0,-0.0015,-0.0019,-0.0041,-0.0045,-0.0048,-0.0096,-0.0103,-0.0136,-0.0128,-0.01,-0.0129,-0.0129,-0.018,-0.0187,-0.02,-0.0243,-0.0247,-0.0236,-0.0238,-0.0239,-0.024,0,0,0,0,0,0,0,-0.0013,-0.0016,-0.0043,-0.0042,-0.0046,-0.0075,-0.008,-0.011,-0.0138,-0.0102,-0.0105,-0.0111,-0.0183,-0.0196,-0.0202,-0.0248,-0.0236,-0.0239,-0.0241,-0.0242,-0.0308,-0.0308,0,0,0,0,0,0,0.0001,-0.0014,-0.004,-0.0044,-0.0031,-0.0075,-0.0081,-0.0081,-0.0138,-0.0146,-0.011,-0.0113,-0.019,-0.0198,-0.0206,-0.0213,-0.0239,-0.0243,-0.0244,-0.0309,-0.0308,-0.0308,0,0,0,0,0,0,0.0002,-0.0001,-0.0038,-0.003,-0.0037,-0.0074,-0.0075,-0.0082,-0.0095,-0.0143,-0.0153,-0.0115,-0.0191,-0.0201,-0.0228,-0.0218,-0.0244,-0.0247,-0.0309,-0.0309,-0.0308,-0.0235,0,0,0,0,0,0,0.0003,0.0,0.0005,-0.0029,-0.0037,-0.0049,-0.0075,-0.0083,-0.0097,-0.0101,-0.0151,-0.016,-0.0192,-0.0222,-0.0231,-0.0223,-0.025,-0.0309,-0.0309,-0.0308,-0.0238,-0.0233,-0.0228,0,0,0,0,0,0.0005,0.0016,0.0005,0.0002,-0.0029,-0.0048,-0.0054,-0.0084,-0.0097,-0.0098,-0.0131,-0.0158,-0.0226,-0.0225,-0.0235,-0.0227,-0.0309,-0.0309,-0.0308,-0.024,-0.0234,-0.0228,0,0,0,0,0,0,0.0035,0.0011,-0.0001,0.0003,-0.0018,-0.0055,-0.0058,-0.0078,-0.0106,-0.0109,-0.0156,-0.0167,-0.0188,-0.0218,-0.0216,-0.0246,-0.0272,-0.0273,-0.0217,-0.0211,-0.0206,-0.0191,-0.0252,0,0,0,0,0,0.0044,0.0045,0.0017,0.002,0.0013,-0.0021,-0.0033,-0.0051,-0.008,-0.0093,-0.0128,-0.0164,-0.0194,-0.021,-0.0242,-0.0257,-0.0287,-0.026,-0.0254,-0.025,-0.0245,-0.0284,-0.0282,-0.0306,-0.0306,-0.0306,0,0,0.0056,0.0044,0.0044,0.0026,0.0008,0.0007,-0.0029,-0.0039,-0.004,-0.0098,-0.011,-0.0148,-0.0194,-0.0212,-0.0223,-0.0235,-0.0257,-0.0249,-0.0245,-0.0243,-0.0283,-0.0281,-0.0278,-0.0306,-0.0306,-0.0306,0,0,0.0085,0.0072,0.0084,0.0071,0.0051,0.0031,0.0032,-0.0001,-0.0016,-0.0034,-0.0074,-0.0105,-0.0151,-0.018,-0.0201,-0.0189,-0.023,-0.0198,-0.0159,-0.0196,-0.0194,-0.0193,-0.0217,-0.0218,-0.0194,-0.0194,-0.0194,0,0.0101,0.0112,0.0084,0.0092,0.0089,0.0047,0.006,0.0041,0.0003,-0.0004,-0.0028,-0.0093,-0.0136,-0.0154,-0.0153,-0.0176,-0.02,-0.0176,-0.0189,-0.0188,-0.0188,-0.0213,-0.0215,-0.019,-0.0191,-0.0191,-0.0192,0,0.0137,0.0146,0.0153,0.0151,0.0143,0.0147,0.012,0.0113,0.0088,0.0061,0.0034,-0.0026,-0.0063,-0.0084,-0.0117,-0.0133,-0.015,-0.0177,-0.02,-0.0181,-0.0208,-0.0212,-0.0185,-0.0187,-0.0188,-0.0189,0,0,0.0176,0.0179,0.0182,0.0196,0.0176,0.0178,0.0181,0.0171,0.0181,0.0129,0.0131,0.0064,0.0027,0.0,-0.0046,-0.0084,-0.0108,-0.0125,-0.0129,-0.014,-0.0178,-0.0188,-0.0193,-0.0136,-0.0137,-0.0137,-0.0193,0,0.0214,0.0248,0.0235,0.027,0.0286,0.0258,0.0271,0.0255,0.0226,0.0217,0.0149,0.0127,0.0062,0.0048,-0.0001,-0.0079,-0.0116,-0.0089,-0.0202,-0.0205,-0.021,-0.0198,-0.0163,-0.0209,-0.0197,-0.0198,-0.0198,0,0.0256,0.0273,0.0314,0.0341,0.0347,0.0362,0.0376,0.0378,0.0349,0.0326,0.0282,0.0228,0.017,0.011,-0.0012,0.001,-0.0076,-0.0145,-0.0149,-0.0187,-0.0223,-0.0231,-0.0218,-0.0206,-0.0205,-0.0204,-0.0204,0,0.0303,0.0333,0.0371,0.0377,0.0397,0.0417,0.0425,0.0412,0.0432,0.0391,0.0397,0.031,0.0282,0.0158,0.0018,0.0003,-0.0117,-0.0157,-0.0246,-0.0248,-0.0255,-0.0256,-0.0246,-0.0246,-0.0246,-0.0246,-0.0246,0,0.035,0.0384,0.04,0.0423,0.0484,0.0471,0.0526,0.0519,0.0523,0.0563,0.0457,0.047,0.0292,0.0203,0.0055,-0.0097,-0.009,-0.0235,-0.0263,-0.0227,-0.0225,-0.0256,-0.0257,-0.0248,-0.0248,-0.0247,-0.0247,0,0.0399,0.0406,0.0458,0.0491,0.0511,0.0551,0.0605,0.0641,0.063,0.0678,0.0674,0.0596,0.048,0.0298,0.0108,-0.003,-0.0189,-0.0248,-0.0186,-0.0207,-0.0305,-0.0301,-0.0353,-0.0354,-0.0355,-0.0355,-0.0356,0,0.0426,0.0458,0.0514,0.0553,0.0573,0.063,0.0679,0.0694,0.0738,0.0766,0.08,0.0712,0.0668,0.0381,0.0118,-0.0134,-0.0178,-0.0268,-0.0303,-0.0293,-0.0317,-0.0311,-0.0307,-0.028,-0.028,-0.028,-0.028,0,0.0481,0.0499,0.0541,0.0623,0.0682,0.0756,0.0824,0.0881,0.0915,0.0963,0.1011,0.0982,0.072,0.047,0.0119,-0.0049,-0.0229,-0.0274,-0.0281,-0.0257,-0.0229,-0.025,-0.0248,-0.0279,-0.0279,-0.0279,-0.0279,-0.0279,0.0522,0.0561,0.0618,0.0697,0.0772,0.0869,0.0938,0.1018,0.1117,0.1194,0.1171,0.1138,0.0849,0.0407,0.0095,-0.0226,-0.0216,-0.0327,-0.0326,-0.0325,-0.0305,-0.028,-0.0334,-0.0334,-0.0335,-0.0335,-0.0335,0,0.0569,0.0614,0.0688,0.0782,0.0869,0.0908,0.1031,0.1098,0.1222,0.1301,0.1342,0.1096,0.081,0.0472,-0.0007,-0.0295,-0.0315,-0.0376,-0.0344,-0.0342,-0.0341,-0.0321,-0.0355,-0.0357,-0.0358,-0.0359,0,0,0.0595,0.0668,0.0703,0.0847,0.0923,0.1045,0.1121,0.1223,0.1301,0.1372,0.1375,0.1332,0.0928,0.0579,0.0184,-0.0094,-0.0149,-0.0138,-0.0087,0.0001,0.0005,-0.0273,-0.0235,0,0,0,0,0]}],[{"header":{"parameterUnit":"m.s-1","parameterCategory":2,"la1":30.2991,"la2":30.254,"lo1":-89.0895,"lo2":-89.0444,"dy":0.0017,"dx":0.0017,"nx":28,"ny":28,"refTime":"2024-03-08T03:00:00:Z","depth":"4","parameterNumber":2,"parameterNumberName":"U-component_of_CURRENTS"},"data":[0,0,0,0,0,0,0,0,0,0,0,0,0,0,0,0,0,0,0,0,0,0,0,0,0,0,0,0,0,0,0,0,0,0,0,0,0,0,0,0,0,0,0,0,0,0,0,0,0,0,0,0,0,0,0,0,0,0,0.1621,0.1622,0,0.1687,0.1687,0.1688,0.1741,0.1741,0.1742,0.1743,0.1821,0.1822,0.1823,0,0,0,0,0,0,0,0,0,0,0,0,0,0.1528,0.1529,0.1621,0.1622,0.1623,0.1687,0.1687,0.1688,0.1741,0.1741,0.1742,0.1743,0.182,0.1822,0.1824,0,0,0,0,0,0,0,0,0,0,0,0,0,0.1576,0.1529,0.162,0.1658,0.1662,0.1686,0.1687,0.1688,0.174,0.1741,0.1743,0.1744,0.182,0.1822,0.1824,0.1815,0,0,0.183,0.1831,0,0,0,0,0,0,0,0,0.1573,0.1579,0.1652,0.1656,0.166,0.1708,0.1683,0.1732,0.174,0.1709,0.1743,0.1744,0.1785,0.179,0.1797,0.1819,0.1822,0.183,0.1832,0.1833,0.1833,0,0,0,0,0,0,0,0.157,0.1577,0.1645,0.1653,0.1658,0.1667,0.1675,0.1692,0.1738,0.1711,0.1716,0.1726,0.1787,0.1795,0.1799,0.1823,0.183,0.1832,0.1834,0.1834,0.1945,0.1947,0,0,0,0,0,0,0.1566,0.1574,0.1643,0.1647,0.1621,0.1668,0.1677,0.169,0.1738,0.1747,0.1725,0.1728,0.179,0.1796,0.1802,0.1886,0.1833,0.1835,0.1836,0.1944,0.1946,0.1948,0,0,0,0,0,0,0.1563,0.1571,0.164,0.1613,0.1623,0.1669,0.1683,0.1691,0.1734,0.1749,0.1758,0.1765,0.1791,0.1799,0.1851,0.1886,0.1836,0.1837,0.1942,0.1944,0.1947,0.1996,0,0,0,0,0,0,0.156,0.157,0.1594,0.1613,0.1624,0.1677,0.1682,0.1692,0.1737,0.1743,0.1785,0.1791,0.1793,0.1848,0.1853,0.1888,0.1839,0.194,0.1943,0.1946,0.1992,0.2,0.2007,0,0,0,0,0,0.1557,0.1578,0.1595,0.1604,0.1651,0.1678,0.1686,0.172,0.1739,0.1762,0.1795,0.1792,0.1872,0.1851,0.1856,0.1893,0.1938,0.1942,0.1946,0.1989,0.1998,0.2006,0,0,0,0,0,0,0.155,0.1586,0.1605,0.1637,0.1668,0.1689,0.1719,0.1739,0.1782,0.18,0.1811,0.1819,0.1877,0.188,0.1856,0.1935,0.1905,0.191,0.1937,0.1945,0.1952,0.1951,0.1841,0,0,0,0,0,0.1559,0.159,0.1619,0.165,0.1669,0.1701,0.1724,0.1748,0.1779,0.1801,0.1829,0.1862,0.189,0.1915,0.1937,0.198,0.1986,0.2009,0.2016,0.2022,0.2025,0.2063,0.2074,0.196,0.196,0.196,0,0,0.1566,0.1591,0.161,0.1652,0.1681,0.171,0.1718,0.1764,0.1796,0.1802,0.1866,0.1889,0.1908,0.1956,0.1983,0.1968,0.2061,0.2026,0.2031,0.2032,0.2068,0.2079,0.2089,0.1963,0.1962,0.1962,0,0,0.158,0.1619,0.1645,0.1674,0.1725,0.1743,0.1763,0.1806,0.1839,0.1893,0.1907,0.1953,0.2,0.2019,0.2032,0.2092,0.2096,0.2109,0.2147,0.2184,0.2193,0.2201,0.2235,0.2246,0.2114,0.2114,0.2114,0,0.159,0.1625,0.1658,0.1688,0.1717,0.176,0.1791,0.1826,0.1883,0.1913,0.1925,0.2009,0.2026,0.2078,0.2103,0.2108,0.2131,0.211,0.2192,0.2201,0.2208,0.224,0.2252,0.2117,0.2117,0.2116,0.2116,0,0.1612,0.1654,0.1674,0.1726,0.176,0.1799,0.1843,0.1895,0.1941,0.1971,0.2048,0.2076,0.2126,0.2142,0.2143,0.2211,0.2211,0.2194,0.2167,0.2222,0.2253,0.2264,0.2121,0.212,0.2119,0.2118,0,0,0.1593,0.1673,0.1684,0.1717,0.1787,0.1812,0.1878,0.1939,0.199,0.2053,0.2115,0.2169,0.2197,0.2214,0.2229,0.2262,0.2339,0.2261,0.2261,0.2288,0.2432,0.2299,0.2298,0.2343,0.2345,0.2347,0.2435,0,0.1604,0.1661,0.17,0.1763,0.1795,0.1858,0.1909,0.1974,0.2037,0.211,0.2159,0.2223,0.2221,0.226,0.2296,0.2333,0.2369,0.2317,0.2379,0.2381,0.2251,0.2306,0.2353,0.2443,0.2446,0.2448,0.2449,0,0.1604,0.1647,0.1705,0.1785,0.1806,0.1852,0.195,0.2004,0.2107,0.2158,0.2235,0.2277,0.2357,0.2338,0.2432,0.2405,0.2427,0.2443,0.2446,0.2309,0.2267,0.2375,0.2468,0.2467,0.2465,0.2464,0.2463,0,0.1561,0.1647,0.1695,0.1724,0.1818,0.1868,0.1929,0.2027,0.2087,0.2204,0.2265,0.2348,0.2417,0.2458,0.2511,0.2485,0.2601,0.2562,0.2461,0.2452,0.2523,0.2513,0.2618,0.2618,0.2618,0.2618,0.2617,0,0.1539,0.1583,0.1688,0.1715,0.1782,0.1857,0.1941,0.2016,0.2129,0.2196,0.2296,0.236,0.2455,0.2531,0.2547,0.2546,0.2637,0.2476,0.2466,0.2543,0.2535,0.2531,0.252,0.2621,0.262,0.262,0.2619,0,0.1477,0.1548,0.161,0.1722,0.1764,0.1816,0.195,0.2001,0.2126,0.2223,0.227,0.2409,0.2499,0.2575,0.2655,0.2587,0.2598,0.2574,0.2675,0.2669,0.2414,0.2405,0.2453,0.2449,0.2445,0.2443,0.244,0,0.1447,0.1476,0.1603,0.1643,0.1702,0.1796,0.185,0.1985,0.204,0.2229,0.2259,0.241,0.2482,0.2495,0.2578,0.2603,0.2571,0.2555,0.2451,0.2411,0.2398,0.2394,0.2389,0.2435,0.2434,0.2433,0.2432,0,0.1388,0.1447,0.1498,0.1584,0.1653,0.1717,0.1814,0.1843,0.1989,0.2127,0.2196,0.2251,0.2353,0.2408,0.2457,0.2464,0.2547,0.2519,0.2524,0.2426,0.239,0.2379,0.2379,0.2421,0.2422,0.2423,0.2424,0,0.1346,0.1365,0.1442,0.1503,0.1584,0.1611,0.1675,0.1739,0.1814,0.201,0.2033,0.2191,0.2329,0.2339,0.2384,0.2386,0.2334,0.2236,0.2255,0.2269,0.2167,0.2092,0.2029,0,0,0,0,0,0.1293,0.1303,0.1355,0.1408,0.148,0.153,0.1633,0.1696,0.1838,0.1835,0.1928,0.2008,0.208,0.2169,0.2133,0.2303,0.2344,0.2251,0.224,0.2356,0.2369,0.2265,0,0,0,0,0,0,0.1255,0.13,0.1317,0.1313,0.1333,0.1396,0.1456,0.1553,0.1558,0.1715,0.1767,0.189,0.1994,0.2085,0.2098,0.2123,0.2075,0.2353,0.2348,0.2348,0.2361,0.2371,0.2269,0,0,0,0,0]},{"header":{"parameterUnit":"m.s-1","parameterCategory":2,"la1":30.2991,"la2":30.254,"lo1":-89.0895,"lo2":-89.0444,"dy":0.0017,"dx":0.0017,"nx":28,"ny":28,"refTime":"2024-03-08T03:00:00:Z","depth":"4","parameterNumber":3,"parameterNumberName":"V-component_of_CURRENTS"},"data":[0,0,0,0,0,0,0,0,0,0,0,0,0,0,0,0,0,0,0,0,0,0,0,0,0,0,0,0,0,0,0,0,0,0,0,0,0,0,0,0,0,0,0,0,0,0,0,0,0,0,0,0,0,0,0,0,0,0,0.0035,0.0035,0,-0.0012,-0.0013,-0.0013,-0.0047,-0.0047,-0.0047,-0.0047,-0.0113,-0.0115,-0.0116,0,0,0,0,0,0,0,0,0,0,0,0,0,0.0059,0.0059,0.0035,0.0035,0.0034,-0.0012,-0.0013,-0.0013,-0.0047,-0.0047,-0.0047,-0.0047,-0.0113,-0.0115,-0.0116,0,0,0,0,0,0,0,0,0,0,0,0,0,0.0033,0.0059,0.0035,0.0012,0.001,-0.0012,-0.0013,-0.0014,-0.0047,-0.0047,-0.0047,-0.0047,-0.0112,-0.0114,-0.0117,-0.0125,0,0,-0.0124,-0.0125,0,0,0,0,0,0,0,0,0.0035,0.0032,0.0016,0.0014,0.0011,-0.0023,-0.0028,-0.0052,-0.0046,-0.0026,-0.0047,-0.0048,-0.0084,-0.0089,-0.0098,-0.0128,-0.0131,-0.0124,-0.0126,-0.0127,-0.0127,0,0,0,0,0,0,0,0.0037,0.0034,0.0016,0.0016,0.0013,-0.0008,-0.0012,-0.0033,-0.0054,-0.0028,-0.003,-0.0034,-0.0086,-0.0095,-0.01,-0.0132,-0.0124,-0.0126,-0.0128,-0.0128,-0.0174,-0.0173,0,0,0,0,0,0,0.0046,0.0036,0.0017,0.0014,0.0023,-0.0008,-0.0012,-0.0012,-0.0053,-0.0059,-0.0034,-0.0035,-0.0091,-0.0097,-0.0102,-0.0103,-0.0127,-0.0129,-0.013,-0.0174,-0.0173,-0.0173,0,0,0,0,0,0,0.0047,0.0045,0.0019,0.0024,0.002,-0.0008,-0.0008,-0.0013,-0.0022,-0.0057,-0.0064,-0.0037,-0.0092,-0.0099,-0.0117,-0.0106,-0.013,-0.0132,-0.0174,-0.0174,-0.0173,-0.0111,0,0,0,0,0,0,0.0048,0.0046,0.005,0.0025,0.002,0.0012,-0.0008,-0.0014,-0.0024,-0.0027,-0.0063,-0.0069,-0.0092,-0.0113,-0.0119,-0.011,-0.0134,-0.0174,-0.0174,-0.0173,-0.0114,-0.0109,-0.0105,0,0,0,0,0,0.0049,0.0057,0.005,0.0048,0.0026,0.0012,0.0007,-0.0014,-0.0024,-0.0024,-0.0048,-0.0068,-0.0115,-0.0114,-0.0122,-0.0113,-0.0174,-0.0174,-0.0173,-0.0116,-0.011,-0.0105,0,0,0,0,0,0,0.007,0.0054,0.0046,0.0049,0.0034,0.0007,0.0005,-0.001,-0.0029,-0.0031,-0.0065,-0.0073,-0.0086,-0.0109,-0.0108,-0.0126,-0.0148,-0.0149,-0.0102,-0.0097,-0.0092,-0.0079,-0.0136,0,0,0,0,0,0.0077,0.0079,0.0059,0.0062,0.0057,0.0032,0.0024,0.001,-0.001,-0.0019,-0.0045,-0.007,-0.009,-0.01,-0.0123,-0.0131,-0.016,-0.0132,-0.0127,-0.0123,-0.0118,-0.0148,-0.0146,-0.0172,-0.0172,-0.0172,0,0,0.0086,0.0078,0.0079,0.0067,0.0053,0.0054,0.0026,0.0019,0.0022,-0.0023,-0.0028,-0.0057,-0.009,-0.0099,-0.0106,-0.0116,-0.0133,-0.0122,-0.0119,-0.0116,-0.0148,-0.0145,-0.0143,-0.0171,-0.0171,-0.0171,0,0,0.0108,0.0099,0.0108,0.01,0.0086,0.0072,0.0073,0.0049,0.004,0.0029,0.0,-0.0019,-0.0053,-0.0069,-0.0083,-0.0069,-0.011,-0.0079,-0.0043,-0.0073,-0.0071,-0.0069,-0.0107,-0.011,-0.0075,-0.0075,-0.0074,0,0.0119,0.0128,0.0108,0.0115,0.0115,0.0085,0.0097,0.0085,0.0058,0.0055,0.0036,-0.0009,-0.0037,-0.0043,-0.0039,-0.0057,-0.0086,-0.0058,-0.0066,-0.0065,-0.0065,-0.0104,-0.0107,-0.0072,-0.0072,-0.0072,-0.0072,0,0.0145,0.0154,0.0159,0.0161,0.0158,0.0162,0.0146,0.0143,0.0126,0.0108,0.0092,0.0052,0.0027,0.0014,-0.0009,-0.0015,-0.0042,-0.0058,-0.0076,-0.0058,-0.0101,-0.0106,-0.0067,-0.0068,-0.0069,-0.007,0,0,0.0166,0.0176,0.0178,0.0193,0.0184,0.0187,0.0196,0.0194,0.0202,0.0167,0.0171,0.0133,0.0104,0.0086,0.0054,0.0028,0.0003,-0.0009,-0.0012,-0.004,-0.0071,-0.0078,-0.0084,-0.0016,-0.0016,-0.0016,-0.0104,0,0.0192,0.0221,0.0218,0.025,0.0264,0.025,0.0266,0.026,0.024,0.0234,0.0192,0.0177,0.0134,0.0123,0.0092,0.0026,-0.0006,0.0028,-0.009,-0.0093,-0.0096,-0.0088,-0.0017,-0.0108,-0.0109,-0.011,-0.011,0,0.0218,0.0236,0.0271,0.0304,0.031,0.0325,0.0343,0.0351,0.0334,0.0319,0.029,0.0249,0.0211,0.017,0.0069,0.009,0.0017,-0.0039,-0.0044,-0.0073,-0.0108,-0.013,-0.0119,-0.0118,-0.0118,-0.0117,-0.0117,0,0.0244,0.0276,0.0309,0.0317,0.0344,0.0364,0.0378,0.0375,0.0394,0.0368,0.0369,0.0308,0.0282,0.0187,0.0069,0.0066,-0.0051,-0.0071,-0.0148,-0.015,-0.0146,-0.0146,-0.0143,-0.0143,-0.0143,-0.0143,-0.0142,0,0.0271,0.03,0.0326,0.0345,0.0398,0.04,0.0445,0.0448,0.0457,0.0482,0.0415,0.0413,0.0284,0.0201,0.0087,-0.0043,-0.0041,-0.014,-0.0169,-0.0119,-0.0116,-0.015,-0.0149,-0.0146,-0.0145,-0.0145,-0.0144,0,0.0292,0.0307,0.0352,0.0391,0.0412,0.0446,0.0502,0.0529,0.0529,0.0558,0.0556,0.0489,0.0379,0.024,0.008,-0.0013,-0.0142,-0.0191,-0.013,-0.0155,-0.0229,-0.0225,-0.0284,-0.0285,-0.0286,-0.0286,-0.0287,0,0.0304,0.0328,0.0387,0.042,0.0441,0.0494,0.0536,0.0564,0.0592,0.0604,0.0619,0.0533,0.0467,0.0246,0.0086,-0.0133,-0.0165,-0.0238,-0.0231,-0.022,-0.0242,-0.0236,-0.0231,-0.0288,-0.0288,-0.0288,-0.0288,0,0.0327,0.0347,0.0383,0.0453,0.0504,0.0567,0.0623,0.0654,0.0685,0.0692,0.0679,0.0569,0.0442,0.0258,0.0086,-0.0072,-0.0192,-0.0246,-0.0246,-0.024,-0.0225,-0.0245,-0.0239,-0.0291,-0.0291,-0.029,-0.029,0,0.0343,0.037,0.0418,0.048,0.0552,0.0616,0.0646,0.0685,0.0722,0.0734,0.0727,0.0596,0.0522,0.0289,0.0131,-0.0026,-0.007,-0.0122,-0.0129,-0.0128,-0.0059,-0.0016,-0.0038,0,0,0,0,0,0.0353,0.0384,0.0442,0.051,0.0582,0.0626,0.0697,0.0718,0.0751,0.0755,0.0747,0.0633,0.0413,0.0315,0.0158,0.0091,-0.0117,-0.0101,-0.0185,-0.0305,-0.0302,-0.0248,0,0,0,0,0,0,0.0359,0.041,0.0438,0.0526,0.0575,0.0658,0.0705,0.0727,0.0728,0.074,0.0627,0.0588,0.0369,0.0506,0.0155,0.0106,0.0029,-0.02,-0.0204,-0.0307,-0.0304,-0.0302,-0.0245,0,0,0,0,0]}]]